Regional Weather Roundup
Issued by NWS

Home | Current Version | Previous Version | Graphics & Text | Print | Product List | Glossary On
Versions: 1 2 3 4 5 6 7 8 9 10 11 12 13 14 15 16 17 18 19 20 21 22 23 24 25 26 27 28 29 30 31 32 33 34 35 36 37 38 39 40 41 42 43 44 45 46 47 48 49 50
000
ASUS43 KFSD 292010
RWRSD

WEATHER ROUNDUP FOR SOUTH DAKOTA
NATIONAL WEATHER SERVICE SIOUX FALLS SD
300 PM CDT FRI JUL 29 2016

NOTE: "FAIR" INDICATES FEW OR NO CLOUDS BELOW 12,000 FEET WITH NO
SIGNIFICANT WEATHER AND/OR OBSTRUCTIONS TO VISIBILITY.


SDZ001>005-009-010-012>017-292100-
NORTHWEST AND NORTH CENTRAL SOUTH DAKOTA

CITY           SKY/WX    TMP DP  RH WIND       PRES   REMARKS
BUFFALO          N/A     79  55  43 MISG      30.00F
FAITH            N/A     77  55  46 SE8       30.06F
MOBRIDGE       CLOUDY    81  57  43 S15       30.02F
$$

SDZ012>016-024>037-041>051-057-063-072>074-292100-
SOUTHWEST AND SOUTH CENTRAL SOUTH DAKOTA

CITY           SKY/WX    TMP DP  RH WIND       PRES   REMARKS
RAPID CTY ARPT MOSUNNY   77  54  44 SE6       30.06F
PIERRE         MOSUNNY   81  56  42 S15       30.03F
CUSTER         CLOUDY    68  56  65 E10       30.18F
ELLSWORTH AFB  MOSUNNY   81  56  42 VRB7G17   30.06
PHILIP         MOSUNNY   78  60  53 VRB7      30.04F
PINE RIDGE     PTSUNNY   81  56  42 VRB3      30.06F
WINNER         FAIR      80  59  48 SE7       30.08F
$$

SDZ004>011-016>023-039-040-292100-
NORTHEAST SOUTH DAKOTA

CITY           SKY/WX    TMP DP  RH WIND       PRES   REMARKS
ABERDEEN       NOT AVBL
WATERTOWN      PTSUNNY   78  55  44 S9        30.08F
BROOKINGS      MOSUNNY   76  56  49 E9        30.08F
SISSETON         N/A     75  59  57 W10       30.06F
$$

SDZ017-020-022-023-036>040-048>070-292100-
SOUTHEAST SOUTH DAKOTA

CITY           SKY/WX    TMP DP  RH WIND       PRES   REMARKS
SIOUX FALLS    MOSUNNY   78  56  46 NE8       30.07F
HURON          MOSUNNY   81  53  37 VRB5      30.05F
CHAMBERLAIN    MOSUNNY   82  57  42 SE6       30.06F
MITCHELL       SUNNY     82  55  39 MISG      30.06F
YANKTON        SUNNY     77  54  44 CALM      30.04F
$$

ABBREVIATIONS USED IN REMARKS
   TC - TEMPERATURE IN CELSIUS
  WCI - WIND CHILL INDEX
   HX - HEAT INDEX
  VSB - VISIBILITY





USA.gov is the U.S. government's official web portal to all federal, state and local government web resources and services.